Briefing drone pour Saint-genest-lerpt

Rechercher une autre localisation

Conditions de vol :


Nous sommes le : Jeudi 04 mars 2021
Il est 03:30 UTC (04:30 LT)

Lever de soleil : 05:48 UTC (06:48 LT)
Coucher de soleil : 18:00 UTC (19:00 LT)

Météo

L'essentiel des conditions de vol

VIGILANCE MÉTÉO FRANCE - Loire (42)
Pas de vigilances particulieres
CARTE TEMSI
CARTES DES FRONTS
METAR de LFMH
LFMH 040300Z AUTO 18002KT CAVOK 02/M01 Q1025

Date d'émission: 04/03/2021
Heure d'émission: 03:00 UTC
Vent: 180° pour 2 KT (4 km/h)
Visibilité horizontale: > 10 km
Plafond : Plafond et visibilité OK (CAVOK)
Température: 2 °C
Point de rosée: -1 °C
Humidité: 81%
Pression (QNH): 1025 hPa
TAF de LFMH
LFMH 032004Z 0320/0418 CNL

Conditions prévues :

Heure d'émission : Bulletin éffectué le 03 à 20:00 UTC
Prévision : Valide du 03 a 20:00 UTC au 04 a 18:00 UTC
Nuages : à 0ft (0 m)
WEBCAM POUR SAINT-GENEST-LERPT

Réglementation

Voler en sécurité

CARTES AERONAUTIQUE 1/500.000
CARTES VAC (LFMH)
SUP AIP




Chargement des AIP...
NOTAM (SAINT-GENEST-LERPT + Terrain à proximité / FIR )




Chargement des NOTAMS...
CONTACT PREFECTURE 42


Avertissement : Les données mises à disposition sont indicatives. Oxygène Drone ne pourra être tenu responsable de dégâts causés aux biens et aux personnes.